Wind_Speed
26 33 33 35 46 49 51 48 45 42 40 40 40 37 37 36 35 33 31 26 24 24 22 22 20 19 18 17 18 18 14 10 19 18 15 14 12 9 10 6 2 6 6
26 32 34 33 42 46 45 45 44 45 42 40 37 38 35 36 35 34 30 28 31 26 25 24 22 19 19 18 18 16 13 14 21 20 16 15 12 10 9 6 6 5 9
24 28 34 38 40 42 46 46 44 41 41 38 38 37 35 34 33 30 31 31 27 25 26 25 23 22 21 19 18 17 16 16 18 19 18 15 12 9 8 7 4 2 4
25 25 36 38 39 42 46 45 45 40 42 40 37 31 31 29 28 27 28 32 31 33 28 26 26 25 26 27 25 23 19 18 18 18 17 16 14 14 12 8 5 9 5
25 26 32 38 40 42 44 43 39 39 37 33 33 30 29 31 29 34 30 29 32 28 25 24 23 23 23 23 21 21 21 19 17 16 14 14 12 12 12 11 11 9 9
29 29 32 36 39 41 42 44 44 43 42 39 37 31 31 30 31 29 29 28 26 25 25 25 22 21 21 21 21 22 19 16 15 13 13 14 12 10 9 8 7 4 5
22 28 33 34 36 42 42 42 41 40 39 37 33 31 30 32 32 27 26 25 24 24 23 21 22 22 21 19 18 16 15 15 15 11 13 10 11 10 7 6 6 2 4
20 23 28 28 35 39 37 38 40 38 37 36 34 33 34 30 28 25 24 22 22 21 20 21 21 23 22 20 20 17 18 18 16 11 11 11 10 10 8 8 5 4 4
22 23 19 29 36 37 38 37 34 33 33 33 34 32 32 32 30 28 26 24 23 22 21 20 21 23 22 20 17 18 17 16 15 10 7 8 7 7 6 6 4 4 6
11 18 21 28 36 40 40 38 36 35 33 31 33 30 29 32 30 29 25 27 27 28 25 24 26 24 23 21 18 17 14 15 14 11 9 8 7 7 7 8 9 5 7
3 15 20 28 35 40 42 38 35 35 34 35 33 29 27 30 30 26 24 22 24 23 24 25 23 21 23 22 18 15 13 12 12 9 8 7 7 6 6 6 7 9 8
7 11 22 29 31 35 37 36 37 32 32 32 32 27 27 26 27 28 26 24 26 27 26 25 25 25 23 21 19 15 12 11 10 9 8 7 6 5 5 5 5 6 7
7 16 24 29 35 35 35 36 34 35 36 34 32 29 28 28 31 31 27 21 20 22 22 21 22 23 22 18 15 13 12 11 10 9 8 7 6 5 4 4 4 5 6
9 14 25 30 36 37 37 36 35 35 35 34 30 29 29 29 32 33 27 24 23 22 20 20 21 21 21 19 17 15 13 11 10 10 10 9 6 6 4 2 2 3 3
12 20 24 32 36 40 39 36 30 28 29 30 28 28 30 30 31 32 32 31 28 24 24 24 23 22 21 20 19 16 14 13 13 13 11 9 8 6 4 3 1 2 1
16 23 26 29 36 38 37 33 30 30 28 24 21 22 25 23 25 31 30 30 26 26 25 25 24 23 20 19 19 17 16 15 15 13 11 10 9 8 6 4 2 1 3
17 23 26 28 34 37 39 34 33 26 23 21 19 18 17 19 20 27 29 26 25 25 25 25 22 22 19 17 17 18 17 17 16 14 13 12 11 10 10 7 5 4 3
16 20 25 28 31 34 37 32 34 30 30 26 21 16 17 18 22 27 27 27 28 25 20 21 21 20 19 17 16 16 16 16 17 15 15 15 13 12 10 8 7 7 6
17 21 25 27 30 33 32 31 31 30 30 28 25 21 18 20 24 25 26 29 30 30 23 20 20 21 20 17 18 19 19 19 17 17 16 16 15 13 12 11 10 13 13
18 21 23 27 32 32 31 29 27 30 30 30 29 28 27 28 31 28 29 28 28 29 27 23 21 21 21 20 22 22 22 20 19 18 17 17 17 16 14 14 14 13 12
22 22 24 27 31 29 27 28 27 29 28 28 28 29 33 33 30 28 29 27 27 28 27 24 21 21 23 22 23 22 21 20 21 19 17 17 18 18 17 16 17 16 14
23 24 25 25 26 26 25 25 27 27 27 27 28 30 34 29 28 27 27 28 26 26 24 25 23 23 23 24 24 22 20 21 19 19 18 18 19 18 20 19 18 18 15
23 25 24 25 26 26 27 26 25 26 26 28 30 31 35 30 30 28 27 27 27 25 22 23 24 23 21 21 22 21 21 21 20 19 19 18 19 20 21 20 20 19 16
19 23 23 24 25 26 26 26 25 23 26 28 28 31 34 31 29 28 27 25 24 24 25 24 22 23 21 20 21 20 19 19 19 19 19 18 17 20 19 19 18 19 16
19 23 25 25 26 26 28 27 26 27 27 27 27 30 33 31 29 27 24 24 24 25 25 23 21 20 20 18 18 19 19 20 20 20 18 17 18 20 22 18 17 16 18
15 19 21 22 24 26 27 27 27 30 30 29 27 29 31 30 26 26 26 23 23 23 22 22 21 21 20 20 19 19 19 18 18 19 19 19 18 21 21 19 19 16 15
Wind_Direction
245 253 247 237 231 225 222 221 213 206 201 194 194 190 191 187 186 188 192 192 195 198 195 188 185 178 175 169 170 178 180 175 168 164 173 170 163 174 167 190 53 333 314
236 247 249 246 230 223 219 217 208 199 195 193 187 191 188 185 184 187 191 201 192 188 188 183 181 165 160 165 165 163 165 164 173 161 164 160 162 164 164 162 138 144 281
247 247 247 244 231 224 222 214 205 197 190 187 183 182 181 182 180 182 190 188 182 184 180 177 171 167 163 157 160 157 150 155 162 168 157 163 170 166 171 170 164 173 252
255 253 245 242 233 224 217 210 202 188 181 175 177 176 180 182 183 190 191 184 186 189 182 181 176 174 175 173 168 165 155 157 160 166 168 174 182 181 176 178 186 187 186
275 256 246 234 223 217 207 199 189 182 187 185 179 180 190 184 191 189 191 188 189 178 176 177 177 177 178 177 177 173 173 170 171 171 178 184 182 191 203 195 194 248 228
264 250 232 218 211 207 191 182 177 175 176 180 188 180 183 189 190 190 185 183 179 177 175 181 178 182 182 183 178 174 172 171 169 170 175 182 186 199 204 199 214 213 257
246 228 217 212 202 192 187 184 186 183 177 171 174 181 179 187 187 185 181 179 174 173 178 178 174 179 180 176 173 175 173 164 152 156 182 190 178 192 196 202 203 179 230
223 221 211 205 188 181 180 173 171 167 167 173 176 175 185 185 180 178 174 171 169 168 171 167 180 171 176 171 172 165 160 166 160 159 154 165 177 183 181 184 196 195 210
231 211 204 196 188 184 178 174 170 165 168 173 177 177 189 179 173 172 169 167 163 162 168 174 165 173 168 173 168 172 177 174 182 189 174 179 192 203 217 193 192 176 217
227 217 204 195 189 182 179 174 172 175 173 169 168 177 184 177 173 174 175 173 167 169 167 168 175 179 175 175 177 181 175 174 179 185 189 198 204 206 212 215 204 180 213
160 200 196 188 183 179 176 177 168 163 167 167 173 177 174 175 172 176 177 182 183 174 175 172 179 167 167 174 173 179 182 174 181 186 186 189 196 206 217 221 224 221 208
215 187 186 175 168 175 169 159 166 169 169 166 168 168 179 183 186 183 179 185 185 184 184 184 177 168 172 180 184 187 172 177 192 189 193 194 202 217 232 243 249 253 248
220 195 186 179 170 167 167 161 162 176 173 173 173 175 175 174 178 179 187 187 190 185 182 180 180 177 179 181 182 183 183 191 190 197 198 207 211 225 240 253 260 274 275
199 204 191 188 179 177 168 167 177 182 178 174 177 180 177 176 177 180 182 179 180 181 173 173 177 179 183 187 188 191 195 192 198 198 209 215 212 216 222 237 268 309 320
216 207 195 191 190 185 183 176 180 174 178 177 183 184 180 186 187 187 184 180 179 176 171 172 174 177 185 188 191 194 198 201 202 207 215 209 208 207 209 214 241 303 276
220 209 203 194 191 188 183 176 179 178 183 188 194 195 187 192 188 187 186 185 181 178 178 179 178 182 187 186 192 196 203 207 205 205 204 201 203 199 210 212 233 259 254
217 212 205 199 192 187 185 181 173 182 188 182 183 185 190 192 190 185 182 183 182 182 184 184 185 186 185 191 199 203 206 204 206 203 199 202 201 203 210 226 240 254 269
218 214 203 196 192 190 185 182 183 180 174 173 179 183 179 185 184 182 184 183 180 184 183 187 189 191 189 191 197 199 199 205 199 203 203 210 209 210 220 216 234 244 260
216 202 196 189 186 182 177 182 185 182 180 175 171 175 177 174 180 184 190 190 186 184 188 198 198 203 192 196 205 204 209 214 209 210 209 213 223 214 223 229 233 238 258
202 197 192 188 184 184 184 182 182 180 184 183 182 176 169 172 181 190 191 194 197 195 190 199 206 209 206 196 216 214 214 215 220 216 216 219 224 232 225 234 238 246 270
192 187 185 182 181 184 184 182 180 183 189 190 186 182 178 177 182 188 190 192 199 201 201 195 208 219 210 205 216 225 210 215 216 224 221 225 230 236 237 236 244 249 248
190 185 183 180 178 179 179 179 187 192 192 185 181 183 181 179 184 189 194 197 199 204 206 205 204 214 220 215 210 220 217 216 221 225 230 228 235 239 242 243 243 245 245
192 184 180 181 182 183 187 188 193 193 189 180 187 184 183 184 189 194 199 205 207 208 207 214 204 213 216 213 216 216 219 219 221 227 234 235 236 236 242 247 246 242 245
195 188 184 185 187 189 191 190 194 188 183 192 196 190 189 191 195 197 201 209 214 214 209 217 212 207 214 218 216 215 220 221 226 229 229 236 242 245 243 244 239 240 242
196 192 193 193 192 192 193 195 193 185 191 197 198 194 194 197 201 203 208 213 216 214 209 212 212 213 218 227 222 223 225 227 228 235 240 241 239 241 246 239 237 237 249
202 202 203 203 200 198 198 197 195 191 192 195 199 196 198 200 206 207 209 206 207 207 210 214 217 220 223 228 229 228 234 239 240 242 246 248 246 243 245 240 242 240 245
Height
1372 1368 1372 1376 1380 1382 1385 1388 1391 1398 1404 1409 1416 1422 1429 1437 1443 1449 1458 1461 1465 1475 1481 1487 1492 1491 1495 1500 1506 1509 1514 1516 1518 1525 1527 1528 1531 1533 1534 1535 1536 1534 1533
1364 1362 1366 1368 1371 1375 1380 1383 1387 1390 1394 1405 1412 1418 1428 1433 1440 1445 1450 1459 1463 1470 1479 1483 1486 1488 1492 1497 1502 1506 1510 1512 1516 1520 1523 1526 1528 1531 1533 1536 1538 1538 1533
1358 1357 1358 1361 1364 1367 1371 1376 1382 1388 1390 1399 1407 1415 1423 1432 1437 1442 1451 1456 1459 1470 1476 1478 1482 1485 1489 1495 1500 1503 1507 1511 1515 1517 1519 1523 1524 1529 1533 1533 1534 1535 1534
1353 1351 1353 1354 1357 1361 1366 1370 1376 1382 1385 1392 1402 1413 1423 1431 1435 1442 1453 1451 1457 1468 1470 1474 1478 1481 1486 1489 1494 1497 1504 1508 1512 1514 1516 1519 1521 1525 1529 1531 1533 1534 1535
1347 1345 1345 1348 1353 1356 1361 1366 1373 1381 1390 1389 1403 1412 1423 1427 1435 1441 1447 1452 1462 1461 1465 1473 1476 1480 1485 1489 1493 1495 1500 1503 1508 1511 1514 1517 1518 1524 1529 1525 1530 1529 1531
1338 1339 1340 1343 1348 1353 1355 1362 1369 1377 1384 1392 1403 1410 1418 1429 1435 1442 1446 1453 1455 1457 1464 1469 1474 1480 1485 1488 1491 1495 1499 1501 1504 1508 1512 1512 1516 1523 1526 1524 1526 1527 1530
1335 1335 1336 1340 1345 1348 1355 1364 1371 1377 1384 1393 1403 1411 1419 1429 1434 1439 1445 1449 1451 1457 1463 1469 1473 1478 1484 1488 1491 1494 1498 1501 1503 1508 1511 1517 1514 1520 1523 1525 1524 1525 1527
1333 1334 1336 1339 1345 1351 1357 1364 1370 1378 1386 1394 1403 1412 1420 1428 1432 1439 1443 1447 1451 1456 1461 1466 1471 1476 1482 1485 1490 1493 1496 1500 1503 1507 1508 1514 1515 1518 1522 1524 1524 1524 1525
1333 1335 1337 1340 1344 1351 1359 1366 1373 1380 1389 1396 1405 1414 1419 1425 1431 1436 1440 1444 1450 1454 1460 1464 1471 1475 1479 1484 1487 1491 1495 1497 1502 1505 1507 1511 1514 1516 1519 1520 1522 1523 1526
1333 1336 1339 1341 1345 1351 1359 1367 1374 1384 1390 1400 1408 1415 1419 1423 1430 1435 1438 1441 1447 1452 1457 1464 1467 1472 1475 1480 1484 1490 1494 1498 1501 1504 1506 1510 1512 1515 1517 1518 1517 1520 1522
1336 1336 1341 1345 1349 1354 1360 1368 1377 1386 1394 1400 1406 1411 1416 1423 1428 1433 1437 1441 1446 1449 1456 1461 1467 1472 1474 1480 1484 1487 1492 1495 1500 1503 1505 1508 1511 1513 1514 1515 1515 1516 1517
1338 1340 1343 1348 1354 1360 1365 1372 1379 1385 1391 1398 1403 1410 1415 1422 1426 1431 1434 1439 1444 1448 1453 1459 1467 1468 1473 1480 1483 1487 1491 1494 1499 1502 1505 1507 1509 1511 1512 1512 1513 1513 1514
1340 1342 1346 1348 1356 1362 1367 1373 1379 1383 1389 1395 1401 1406 1412 1417 1424 1428 1431 1438 1443 1450 1454 1459 1467 1467 1475 1479 1484 1488 1490 1494 1497 1501 1503 1505 1507 1509 1509 1510 1511 1511 1511
1342 1343 1346 1350 1353 1361 1367 1373 1375 1380 1387 1392 1398 1403 1409 1414 1419 1424 1430 1434 1440 1448 1452 1459 1464 1470 1474 1477 1482 1486 1489 1492 1496 1499 1501 1503 1505 1507 1507 1508 1509 1509 1508
1342 1342 1345 1349 1355 1358 1364 1369 1374 1381 1385 1389 1394 1399 1405 1409 1415 1420 1426 1431 1438 1446 1451 1456 1460 1467 1471 1475 1480 1484 1486 1490 1494 1496 1498 1501 1503 1504 1505 1506 1507 1507 1507
1339 1341 1342 1346 1351 1357 1362 1368 1374 1379 1385 1391 1395 1399 1405 1410 1413 1419 1425 1433 1440 1444 1449 1455 1459 1464 1468 1473 1477 1481 1484 1488 1491 1494 1496 1499 1501 1502 1503 1504 1505 1505 1505
1336 1337 1340 1344 1347 1352 1360 1364 1370 1380 1386 1390 1394 1399 1404 1408 1413 1418 1424 1432 1438 1444 1450 1453 1458 1463 1467 1471 1474 1478 1481 1485 1488 1491 1494 1496 1498 1500 1501 1501 1502 1502 1503
1334 1335 1338 1343 1346 1352 1358 1363 1368 1375 1380 1388 1395 1399 1404 1409 1415 1418 1425 1431 1436 1443 1449 1453 1457 1461 1465 1470 1473 1476 1480 1482 1485 1488 1491 1493 1495 1496 1497 1499 1500 1501 1500
1331 1334 1338 1342 1347 1352 1356 1362 1368 1374 1380 1385 1392 1399 1404 1408 1415 1419 1425 1428 1432 1439 1446 1452 1456 1459 1463 1468 1471 1474 1477 1479 1481 1484 1487 1489 1491 1493 1495 1496 1497 1496 1496
1329 1332 1336 1341 1346 1351 1357 1361 1366 1373 1378 1383 1390 1394 1400 1407 1412 1416 1422 1425 1430 1437 1444 1449 1453 1457 1460 1465 1467 1470 1473 1476 1478 1480 1483 1485 1487 1489 1490 1491 1492 1492 1491
1328 1331 1337 1342 1347 1351 1357 1362 1367 1371 1376 1382 1387 1392 1396 1402 1409 1413 1418 1423 1429 1435 1441 1446 1451 1453 1456 1460 1463 1465 1469 1471 1474 1476 1479 1481 1483 1484 1485 1487 1487 1486 1487
1330 1333 1338 1342 1347 1352 1358 1363 1365 1369 1375 1381 1386 1390 1395 1403 1407 1412 1416 1421 1427 1432 1437 1442 1446 1449 1451 1454 1458 1461 1464 1467 1470 1472 1474 1476 1478 1479 1480 1481 1481 1481 1481
1332 1335 1339 1343 1348 1353 1357 1360 1364 1369 1375 1380 1383 1387 1394 1400 1405 1410 1415 1419 1424 1429 1434 1437 1441 1445 1447 1451 1454 1457 1459 1462 1465 1467 1469 1471 1473 1474 1474 1475 1475 1475 1475
1335 1337 1340 1343 1347 1351 1355 1360 1364 1369 1374 1377 1381 1386 1392 1398 1402 1408 1412 1416 1421 1425 1430 1433 1436 1440 1443 1446 1450 1453 1455 1458 1460 1462 1464 1466 1467 1468 1469 1469 1470 1470 1470
1336 1339 1341 1343 1347 1351 1355 1359 1364 1368 1372 1375 1380 1386 1391 1395 1400 1405 1409 1414 1418 1422 1426 1429 1433 1437 1440 1443 1445 1448 1451 1453 1455 1457 1458 1460 1462 1462 1463 1463 1464 1465 1464
1337 1340 1342 1344 1347 1350 1353 1357 1362 1366 1370 1374 1378 1383 1389 1393 1397 1402 1406 1411 1414 1418 1422 1426 1429 1433 1436 1439 1441 1443 1445 1448 1450 1452 1453 1454 1455 1456 1456 1458 1458 1459 1459